Flag for Norway Weather past 2 weeks in Fevik, Norway

Now
58 °F

Cool.


Feels Like: 57 °F
Forecast: 56 / 67 °F
Wind: 9 mph from Northeast

Location: Torungen Fyr

Current Time: Jul 29, 2015 at 9:54:46 AM

Latest Report: Jul 29, 2015 at 9:00 AM


Visibility: N/A

Pressure: 29.32 "Hg

Humidity: 95%

Dew point: 57 °F

Location of FevikLocation

Historic Weather in Fevik — Graph

°F

Fevik temperature yesterday

Maximum temperature yesterday: 60 °F (at 3:00 PM)
Minimum temperature yesterday: 58 °F (at 7:00 PM)
Average temperature yesterday: 59 °F

Past Weeks' High & Low Weather Summary

 TemperatureHumidityPressure
High72 °F (Jul 15, 5:00 PM)96% (Jul 18, 3:00 AM)30.07 "Hg (Jul 18, 3:00 AM)
Low52 °F (Jul 27, 7:00 AM)26% (Jul 16, 5:00 PM)29.32 "Hg (Jul 29, 7:00 AM)
Average59 °F74%29.72 "Hg
* Reported Jul 14 8:00 AM — Jul 29 8:00 AM, Fevik, Weather by CustomWeather, © 2015

Note: Actual official high and low records may vary slightly from our data, if they occured in-between our weather recording intervals... More about our weather records

Advertising

Fevik weather history for previous 24 hours

 ConditionsComfort  
Time TempWeatherWind HumidityBarometerVisibility
8:00 AM
Wed, Jul 29
58 °FCool.10 mph95%29.32 "HgN/A
7:00 AM57 °FCool.12 mph95%29.32 "HgN/A
6:00 AM57 °FCool.12 mph95%29.35 "HgN/A
4:00 AM56 °FCool.10 mph94%29.38 "HgN/A
3:00 AM57 °FCool.9 mph93%29.41 "HgN/A
2:00 AM57 °FCool.8 mph93%29.41 "HgN/A
1:00 AM57 °FCool.7 mph91%29.44 "HgN/A
12:00 AM58 °FCool.6 mph88%29.44 "HgN/A
10:00 PM
Tue, Jul 28
58 °FCool.6 mph89%29.44 "HgN/A
9:00 PM59 °FCool.7 mph89%29.47 "HgN/A
8:00 PM58 °FCool.6 mph91%29.47 "HgN/A
7:00 PM58 °FCool.6 mph90%29.47 "HgN/A
6:00 PM59 °FCool.9 mph88%29.47 "HgN/A
5:00 PM59 °FCool.13 mph82%29.47 "HgN/A
4:00 PM60 °FCool.12 mph82%29.47 "HgN/A
3:00 PM60 °FCool.14 mph78%29.47 "HgN/A
2:00 PM59 °FCool.13 mph79%29.47 "HgN/A
1:00 PM59 °FCool.14 mph81%29.47 "HgN/A
12:00 PM59 °FCool.14 mph81%29.47 "HgN/A
11:00 AM59 °FCool.14 mph83%29.47 "HgN/A
10:00 AM59 °FCool.14 mph83%29.44 "HgN/A
Weather by CustomWeather, © 2015

See weather overviewHow to use our weather pages